Content
SEND FEEDBACK

Daily
Averages
Monthly
Summary
United States of America

DEDEDO, GUAM


Home > North America > United States > Guam
Elevation: 364 feet     Latitude: 13 33N     Longitude: 144 49E

WEATHER
 
SELECT A DAY
Number of Records: 215,513;   Date Range: 1/1/95 - 12/17/14
 
SHARE

PRINT THIS DATA

[ ← Previous Day ]
WEATHER ALMANAC - AUGUST 1, 2013
[ Next Day → ]
[ °C ]   °F
Weather ElementAverageHighLow
Temperature83.2 °F90 °F (3:54 pm)78.1 °F (6:54 am)
Dewpoint74.9 °F75.9 °F (4:54 am)73 °F (1:54 pm)
Humidity76.5 %87 % (6:54 am)61 % (3:54 pm)
Barometer29.85 in29.91 in (9:13 am)29.76 in (2:54 pm)
Wind Speed6.9 mph13.8 mph (6:32 am)
Wind Gust19.6 mph (6:32 am)
Weather ElementAverage
Visibility9.3 mi
Wind DirectionESE (100 °)

Weather ElementTotal
Precipitation0.07 in
Cooling Degree Days19.1 (Base 65)
Growing Degree Days34.1 (Base 50)
Averaged from 30 records on August 1, 2013
WEATHER CONDITIONS BREAKOUT
WIND DIRECTION BREAKOUT
WEATHER BY HOUR - AUGUST 1, 2013
[ °C ]   °F
Local TimeTemperatureDewpointHumidityBarometerVisibilityWind DirectionWind SpeedGust SpeedPrecipitationEventsConditions
1:54 AM82.9 °F73.9 °F74 %29.81 in10.0 miEast (80°)4.6 mphClear
2:54 AM84.0 °F75.0 °F74 %29.79 in10.0 miEast (80°)5.8 mphClear
3:54 AM80.1 °F73.9 °F81 %29.81 in6.0 miCalm0.03 inRainLight Rain
4:54 AM82.9 °F75.9 °F79 %29.81 in10.0 miENE (70°)5.8 mph0.00 inClear
5:54 AM82.0 °F75.9 °F82 %29.83 in10.0 miEast (90°)5.8 mph0.00 inRainLight Rain
6:07 AM82.4 °F75.2 °F79 %29.86 in10.0 miSouth (190°)8.1 mphOvercast
6:21 AM80.6 °F75.2 °F84 %29.87 in1.8 miSSE (150°)10.4 mph17.3 mphRainHeavy Rain
6:32 AM78.8 °F73.4 °F83 %29.88 in3.0 miSouth (170°)13.8 mph19.6 mphRainLight Rain
6:44 AM78.8 °F73.4 °F83 %29.88 in10.0 miSouth (180°)5.8 mphMostly Cloudy
6:54 AM78.1 °F73.9 °F87 %29.86 in10.0 miSouth (190°)4.6 mphMostly Cloudy
7:54 AM80.1 °F75.9 °F87 %29.88 in10.0 miSE (130°)3.5 mphScattered Clouds
8:54 AM81.0 °F75.0 °F82 %29.88 in10.0 miCalm0.00 inScattered Clouds
9:13 AM80.6 °F75.2 °F84 %29.91 in7.0 miEast (90°)9.2 mph0.00 inRainRain
9:31 AM80.6 °F75.2 °F84 %29.91 in10.0 miESE (110°)4.6 mph0.01 inMostly Cloudy
9:38 AM80.6 °F75.2 °F84 %29.91 in10.0 miESE (110°)4.6 mph0.01 inMostly Cloudy
9:54 AM82.0 °F75.9 °F82 %29.88 in10.0 miESE (110°)6.9 mph0.02 inRainLight Rain
10:54 AM84.0 °F75.0 °F74 %29.88 in10.0 miEast (90°)11.5 mphClear
11:54 AM84.0 °F75.0 °F74 %29.83 in10.0 miEast (80°)12.7 mphPartly Cloudy
12:54 PM86.0 °F75.0 °F70 %29.81 in10.0 miENE (60°)8.1 mphClear
1:54 PM87.1 °F73.0 °F63 %29.77 in10.0 miNNE (20°)6.9 mphClear
2:54 PM89.1 °F75.9 °F65 %29.76 in10.0 miNorth (360°)4.6 mphPartly Cloudy
3:54 PM90.0 °F75.0 °F61 %29.76 in10.0 miVariable3.5 mphScattered Clouds
4:54 PM88.0 °F73.9 °F63 %29.78 in10.0 miNE (50°)11.5 mphPartly Cloudy
5:54 PM86.0 °F73.9 °F67 %29.81 in10.0 miEast (80°)10.4 mphPartly Cloudy
6:54 PM84.0 °F75.0 °F74 %29.83 in10.0 miEast (80°)9.2 mphPartly Cloudy
7:54 PM84.0 °F75.9 °F76 %29.84 in10.0 miEast (90°)6.9 mphPartly Cloudy
8:54 PM84.0 °F75.9 °F76 %29.86 in10.0 miEast (80°)5.8 mphPartly Cloudy
9:54 PM84.0 °F75.9 °F76 %29.88 in10.0 miEast (80°)4.6 mphPartly Cloudy
10:54 PM84.0 °F75.9 °F76 %29.89 in10.0 miEast (90°)6.9 mphScattered Clouds
11:54 PM84.9 °F75.0 °F72 %29.89 in10.0 miEast (90°)10.4 mphPartly Cloudy
Hourly data recorded from PGUM, located miles away from Dededo, Guam







STORIES FROM OUR PARTNERS